EW5544 San Venanzo IT current weather conditions

sailwx.info

Wind from 327 at 1 knots gusting 3

Air temperature 16.7° C
Dewpoint 10.5° C

Last reported at 2020-Jul-05 03:46 UTC.
Time now 2020-Jul-05 04:37 UTC

Location: N 42°51' E 012°18'.
View on Google Maps.

See reports from other nearby stations

  
Tides and Currents Weather Stations Pressure Air Temp Water Temp Dewpoint Dewpoint Depression Visibility Wind Speed Wind Dir Waves Ship Positions
date/time (UTC)wind fromknots sea level pressurealtimeterstation pressurevisibilityair tempwater tempwave heightnotes
2020-Jul-05 03:46 327 1 gusting 3 16.7
2020-Jul-05 03:31 327 1 gusting 3 16.1
2020-Jul-05 03:15 327 1 gusting 4 16.7
2020-Jul-05 03:00 325 1 gusting 3 16.7
2020-Jul-05 02:45 318 2 gusting 4 16.7
2020-Jul-05 02:31 315 1 gusting 3 16.1
2020-Jul-05 02:16 287 16.7
2020-Jul-05 02:00 287 0 gusting 2 16.7
2020-Jul-05 01:31 316 1 gusting 3 17.8
2020-Jul-05 01:01 327 2 gusting 5 18.3
2020-Jul-05 00:46 330 2 gusting 5 18.3
2020-Jul-05 00:31 337 2 gusting 5 17.8
2020-Jul-05 00:15 331 0 gusting 2 17.8
2020-Jul-05 00:01 331 1 gusting 2 17.8
2020-Jul-04 23:46 331 1 gusting 2 17.2
2020-Jul-04 23:30 331 17.8
2020-Jul-04 23:15 331 18.3
2020-Jul-04 23:01 331 1 gusting 3 18.3
2020-Jul-04 22:46 331 0 gusting 3 17.8
2020-Jul-04 22:15 331 0 gusting 2 17.8
2020-Jul-04 22:00 331 0 gusting 1 17.8
2020-Jul-04 21:47 331 0 gusting 2 17.8
2020-Jul-04 21:32 331 1 gusting 2 18.3
2020-Jul-04 21:15 331 18.9
2020-Jul-04 21:00 331 0 gusting 2 19.4
2020-Jul-04 20:46 331 1 gusting 3 19.4
2020-Jul-04 20:30 331 1 gusting 3 19.4
2020-Jul-04 20:15 331 2 gusting 5 20.6
2020-Jul-04 20:03 336 3 gusting 5 20.6
2020-Jul-04 19:46 328 3 gusting 5 21.1
2020-Jul-04 19:30 319 1 gusting 4 20.6
2020-Jul-04 19:16 320 1 gusting 4 21.1
2020-Jul-04 19:01 320 0 gusting 2 21.7
2020-Jul-04 18:30 285 0 gusting 2 23.3
2020-Jul-04 18:15 286 0 gusting 2 23.3
2020-Jul-04 18:00 280 2 gusting 6 23.9
2020-Jul-04 17:45 258 1 gusting 4 23.9
2020-Jul-04 17:30 257 2 gusting 6 23.9
2020-Jul-04 17:15 268 1 gusting 4 24.4
2020-Jul-04 17:00 205 0 gusting 2 24.4
2020-Jul-04 16:45 174 24.4
2020-Jul-04 16:30 172 0 gusting 2 23.9
2020-Jul-04 16:15 119 1 gusting 5 23.9
2020-Jul-04 16:00 184 0 gusting 3 23.3
2020-Jul-04 15:47 132 1 gusting 8 22.8
2020-Jul-04 15:31 091 3 gusting 8 22.2
2020-Jul-04 15:16 159 22.8
2020-Jul-04 14:45 144 1 gusting 8 22.8
2020-Jul-04 14:30 165 1 gusting 10 21.1
2020-Jul-04 14:16 096 4 gusting 12 21.1
2020-Jul-04 14:01 091 5 gusting 9 24.4
2020-Jul-04 13:45 267 3 gusting 10 26.1
2020-Jul-04 13:30 347 6 gusting 10 25.6
2020-Jul-04 13:16 005 3 gusting 9 25.6
2020-Jul-04 12:45 267 6 gusting 12 26.1
2020-Jul-04 12:30 276 6 gusting 12 26.1
2020-Jul-04 12:17 323 7 gusting 11 25.6
2020-Jul-04 12:01 272 3 gusting 13 26.1
2020-Jul-04 11:45 312 5 gusting 11 25.6
2020-Jul-04 11:30 269 4 gusting 8 25.6
2020-Jul-04 11:01 293 5 gusting 12 25.0
2020-Jul-04 10:45 313 4 gusting 12 25.0
2020-Jul-04 10:30 334 3 gusting 11 24.4
2020-Jul-04 10:15 273 1 gusting 9 24.4
2020-Jul-04 10:01 282 2 gusting 9 24.4
2020-Jul-04 09:45 257 4 gusting 10 23.9
2020-Jul-04 09:30 229 3 gusting 10 23.9
2020-Jul-04 09:16 290 4 gusting 7 23.3
2020-Jul-04 09:00 309 4 gusting 8 23.3
2020-Jul-04 08:46 306 4 gusting 7 22.8
2020-Jul-04 08:30 312 5 gusting 9 22.8
2020-Jul-04 08:16 288 4 gusting 8 22.2
2020-Jul-04 07:45 248 3 gusting 7 21.1
2020-Jul-04 07:31 255 2 gusting 8 21.1
2020-Jul-04 07:15 292 2 gusting 7 20.6
2020-Jul-04 07:00 264 4 gusting 9 20.0
2020-Jul-04 06:45 250 4 gusting 9 19.4
2020-Jul-04 06:30 289 1 gusting 6 18.9
2020-Jul-04 06:15 275 2 gusting 6 18.9
2020-Jul-04 06:00 261 2 gusting 6 18.3
2020-Jul-04 05:46 247 1 gusting 4 17.8
2020-Jul-04 05:30 259 17.8
2020-Jul-04 05:00 333 16.7
2020-Jul-04 04:46 294 0 gusting 2 16.1
2020-Jul-04 04:17 294 0 gusting 1 16.1
2020-Jul-04 04:00 294 0 gusting 2 16.1
2020-Jul-04 03:46 294 1 gusting 3 16.1
2020-Jul-04 03:31 297 1 gusting 2 16.1
2020-Jul-04 03:16 297 1 gusting 3 16.1
2020-Jul-04 03:01 297 0 gusting 2 16.1
2020-Jul-04 02:47 301 2 gusting 4 16.7
2020-Jul-04 02:31 294 1 gusting 3 16.7
2020-Jul-04 02:16 335 0 gusting 2 16.7
2020-Jul-04 02:02 097 0 gusting 1 16.1
2020-Jul-04 01:45 097 16.1
2020-Jul-04 01:31 097 16.1
2020-Jul-04 01:16 097 0 gusting 2 16.1
2020-Jul-04 01:01 097 0 gusting 2 16.1
2020-Jul-04 00:45 085 16.7
2020-Jul-04 00:31 360 0 gusting 2 16.7
2020-Jul-04 00:16 360 1 gusting 2 16.7
2020-Jul-04 00:01 284 16.7
2020-Jul-03 23:47 284 17.2
2020-Jul-03 23:15 266 17.8
2020-Jul-03 23:00 266 0 gusting 2 17.8
2020-Jul-03 22:46 266 0 gusting 2 17.8
2020-Jul-03 22:30 266 17.8
2020-Jul-03 22:15 266 0 gusting 2 17.8
2020-Jul-03 22:01 257 1 gusting 4 17.8
2020-Jul-03 21:31 110 0 gusting 2 17.8
2020-Jul-03 21:16 110 1 gusting 2 17.8
2020-Jul-03 21:01 098 1 gusting 2 18.3
2020-Jul-03 20:31 113 0 gusting 2 18.9
2020-Jul-03 20:15 113 18.9
2020-Jul-03 20:01 113 19.4
2020-Jul-03 19:45 098 2 gusting 5 19.4
2020-Jul-03 19:31 053 1 gusting 4 19.4
2020-Jul-03 19:15 360 5 gusting 9 19.4
2020-Jul-03 18:45 292 1 gusting 3 20.0
2020-Jul-03 18:15 331 7 gusting 10 20.0
2020-Jul-03 18:00 034 4 gusting 8 20.6
2020-Jul-03 17:46 073 1 gusting 6 21.1
2020-Jul-03 17:31 119 2 gusting 8 21.7
2020-Jul-03 17:15 188 0 gusting 10 21.7
2020-Jul-03 17:00 046 4 gusting 11 21.7
2020-Jul-03 16:45 027 9 gusting 12 21.7
2020-Jul-03 16:30 237 2 gusting 6 25.6
2020-Jul-03 16:15 017 5 gusting 8 26.7
2020-Jul-03 16:00 042 4 gusting 8 27.2
2020-Jul-03 15:46 054 4 gusting 8 29.4
2020-Jul-03 15:31 209 4 gusting 7 31.1
2020-Jul-03 15:15 229 3 gusting 7 30.0
2020-Jul-03 15:01 257 2 gusting 6 31.1
2020-Jul-03 14:45 245 2 gusting 6 30.6
2020-Jul-03 14:32 219 4 gusting 8 31.1
2020-Jul-03 14:15 242 2 gusting 8 31.1
2020-Jul-03 14:01 237 4 gusting 9 30.6
2020-Jul-03 13:45 246 4 gusting 7 30.6
2020-Jul-03 13:30 236 2 gusting 6 30.0
2020-Jul-03 13:16 196 0 gusting 3 30.0
2020-Jul-03 13:01 200 29.4
2020-Jul-03 12:45 198 2 gusting 4 28.9
2020-Jul-03 12:30 208 2 gusting 8 28.9
2020-Jul-03 12:01 246 0 gusting 5 28.9
2020-Jul-03 11:46 215 2 gusting 6 28.9
2020-Jul-03 11:31 229 4 gusting 7 28.9
2020-Jul-03 11:00 222 2 gusting 7 28.3
2020-Jul-03 10:45 217 4 gusting 9 28.9
2020-Jul-03 10:30 224 2 gusting 7 27.8
2020-Jul-03 10:01 200 2 gusting 6 27.8
2020-Jul-03 09:46 227 2 gusting 4 27.2
2020-Jul-03 09:30 012 2 gusting 6 26.7
2020-Jul-03 09:15 274 0 gusting 2 26.7
2020-Jul-03 09:00 274 2 gusting 6 26.1
2020-Jul-03 08:31 182 26.1
2020-Jul-03 08:15 057 1 gusting 3 25.6
2020-Jul-03 08:01 059 25.6
2020-Jul-03 07:45 058 0 gusting 2 25.0
2020-Jul-03 07:31 057 2 gusting 4 25.0
2020-Jul-03 07:15 159 24.4
2020-Jul-03 07:00 103 23.9
2020-Jul-03 06:45 103 23.3
2020-Jul-03 06:31 104 22.8
2020-Jul-03 06:15 103 22.8
2020-Jul-03 06:01 103 22.2
2020-Jul-03 05:47 103 21.1
2020-Jul-03 05:31 103 20.6
2020-Jul-03 05:16 103 19.4
2020-Jul-03 05:00 103 19.4
2020-Jul-03 04:46 103 18.9
2020-Jul-03 04:31 103 18.9
2020-Jul-03 04:01 103 18.3